Tracking 29777 objects as of 7-Oct-2024
HD Live streaming from Space Station
objects crossing your sky now

OPS 5113 (NAVSTAR 3)

Track OPS 5113 (NAVSTAR 3) now!
OPS 5113 (NAVSTAR 3) is classified as:


NORAD ID: 11054
Int'l Code: 1978-093A
Perigee: 20,561.1 km
Apogee: 21,101.7 km
Inclination: 63.4 °
Period: 744.2 minutes
Semi major axis: 27202 km
RCS: 0.5283 m2 (medium)
Launch date: October 7, 1978
Source: United States (US)
Launch site: AIR FORCE WESTERN TEST RANGE (AFWTR)
Your satellite tracking list
Your tracking list is empty




NASA's NSSDC Master Catalog

Two Line Element Set (TLE):
1 11054U 78093A   24280.35144373 -.00000031  00000-0  00000-0 0  9999
2 11054  63.3897 318.5599 0099376 229.1364 214.8951  1.93504748328701
Source of the keplerian elements: AFSPC